Firth, Idaho
Current Conditions -  °F | °C
As of 4:53 AM on Wednesday 26 Nov 2014 (Local Time) from KPIH Reporting Station
Clear Clear  
Wind Chill: 36°   Ceiling: Unl
Heat Index: 44°   Visibility: 10mi
Dew Point: 37°   Wind: 18mph
Humidity: 76%   Direction: 220°SW
Pressure: 30.28"   Gusts: 26mph
Location:  43.31°N, 112.18°W
Report Text: KPIH 261153Z AUTO 22016G23KT 10SM CLR 07/03 A3028 RMK AO2 PK WND 23028/1108 SLP250 T00670028 10078 20067 51018
Loading
Personal Weather Stations






























Interactive Weather Map New forecast layout! Learn more

10-Day Weather Forecast

Advertisements
Track Severe Weather on mobile